Location: Colebrook
(42.0017°N, 73.0973°W)
Time: 13:09:12
(UTC-04:00)

Amateur Radio Satellites - All Passes

Search period start: 29 May 2016 12:39
Search period end: 30 May 2016 12:39
Location: Colebrook, 42.0017°N, 73.0973°W

Satellite Date Start Highest point End Downlink Frequencies (MHz)
Time Altitude Azimuth
BEESAT 2 29 May 12:42:57 12:46:24 28° 312° (NW) 12:49:53 435.950
AO-85 29 May 12:50:56 12:53:05 13° 32° (NNE) 12:55:11 145.980
Oscar 19 29 May 12:54:52 12:59:46 44° 70° (ENE) 13:04:42 437.125/150
POPSAT HIP 1 29 May 12:58:50 13:00:12 11° 270° (W) 13:01:34 437.405
QB50P1 29 May 12:59:11 13:00:25 11° 270° (W) 13:01:39 145.935-145.965
ESTCUBE 1 29 May 13:08:35 13:12:42 34° 291° (WNW) 13:16:47 437.505/2401.250
DX 1 29 May 13:10:05 13:14:22 56° 287° (WNW) 13:18:36 434.975-435.025
CUBEBUG 1 29 May 13:10:10 13:14:20 44° 288° (WNW) 13:18:27 437.445
50 SAT 29 May 13:15:00 13:18:13 28° 290° (WNW) 13:21:25 437.505
BEESAT 3 29 May 13:17:05 13:18:01 11° 323° (NW) 13:18:56 437.485
CUSAT 1 29 May 13:22:22 13:27:55 26° 297° (WNW) 13:34:11 437.405
VELOX 1 29 May 13:22:25 13:26:28 35° 290° (WNW) 13:30:28 145.980
SPROUT 29 May 13:28:03 13:32:17 71° 286° (WNW) 13:36:31 437.525
AIST 2 29 May 13:29:56 13:34:00 63° 120° (ESE) 13:38:06 435.215
Gurwin Techsat 1B 29 May 13:33:09 13:38:07 43° 69° (ENE) 13:43:07 435.225
DANDE 29 May 13:33:30 13:38:53 35° 293° (WNW) 13:45:36 436.750
ITAMSAT 1 29 May 13:42:02 13:45:51 21° 63° (ENE) 13:49:41 435.822/435.867
TISAT 1 29 May 13:44:59 13:49:01 46° 99° (E) 13:53:01 437.305
SWISSCUBE 29 May 13:49:05 13:50:22 11° 89° (E) 13:51:40 437.505
ITUPSAT 1 29 May 13:56:00 13:57:39 12° 89° (E) 13:59:17 437.325
UKube-1 29 May 13:56:18 13:59:43 23° 294° (WNW) 14:03:07 .
AISAT 29 May 13:59:59 14:02:32 15° 297° (WNW) 14:05:04 437.250
BEESAT 29 May 14:16:40 14:20:10 20° 93° (E) 14:23:39 436.000
JAS-2 29 May 14:17:14 14:23:25 28° 269° (W) 14:29:57 435.910
AO-85 29 May 14:29:54 14:34:36 68° 55° (NE) 14:38:51 145.980
Oscar 19 29 May 14:35:10 14:39:16 23° 266° (W) 14:43:22 437.125/150
AO-7 29 May 14:36:19 14:43:53 41° 60° (ENE) 14:51:29 29.400- 29.500
Cosmos 2491 29 May 14:37:23 14:45:44 46° 74° (ENE) 14:53:59 435.465 / 435.565
YUBILEINY 29 May 14:40:36 14:45:58 18° 77° (ENE) 14:51:20 435.215
AIST 2 29 May 15:10:11 15:12:53 17° 318° (NW) 15:15:36 435.215
Gurwin Techsat 1B 29 May 15:13:55 15:18:13 25° 266° (W) 15:22:33 435.225
ITAMSAT 1 29 May 15:19:55 15:24:56 51° 260° (W) 15:30:00 435.822/435.867
TISAT 1 29 May 15:21:46 15:24:18 16° 296° (WNW) 15:26:48 437.305
SWISSCUBE 29 May 15:23:54 15:28:44 79° 284° (WNW) 15:33:31 437.505
ITUPSAT 1 29 May 15:31:11 15:36:01 76° 286° (WNW) 15:40:49 437.325
BEESAT 29 May 15:53:35 15:58:09 44° 290° (WNW) 16:02:41 436.000
AO-85 29 May 16:12:24 16:14:19 13° 254° (WSW) 16:16:09 145.980
KKS-1 29 May 16:15:36 16:19:47 40° 98° (E) 16:23:57 437.445
NOAA 15 29 May 16:17:25 16:17:52 10° 55° (NE) 16:18:18 137.62
Cosmos 2504 29 May 16:19:17 16:24:05 19° 79° (ENE) 16:29:02 435.465 / 435.565
AO-7 29 May 16:28:36 16:36:30 48° 259° (W) 16:44:29 29.400- 29.500
RS-15 29 May 16:32:14 16:42:40 46° 109° (ESE) 16:53:38 29.354- 29.394
YUBILEINY 29 May 16:32:47 16:41:29 89° 276° (W) 16:50:15 435.215
Cosmos 2491 29 May 16:34:31 16:42:25 40° 274° (W) 16:50:16 435.465 / 435.565
HORYU 2 29 May 16:40:15 16:44:38 71° 74° (ENE) 16:49:03 437.375
NOAA 18 29 May 16:42:11 16:45:22 16° 58° (ENE) 16:48:33 137.9125
STARS 29 May 16:45:35 16:49:45 43° 99° (E) 16:53:54 437.465
MOZHAYETS 4 29 May 16:45:51 16:50:28 68° 101° (ESE) 16:55:06
CUTE-I 29 May 17:11:17 17:15:16 22° 63° (ENE) 17:19:16 437.470
PCSat 29 May 17:35:45 17:40:22 27° 48° (NE) 17:44:58 145.827
BRITE-PL 29 May 17:46:56 17:52:23 50° 71° (ENE) 17:57:51 437.365/2234.400
O/OREOS (USA 219) 29 May 17:47:56 17:50:17 14° 51° (NE) 17:52:38 437.305
NOAA 15 29 May 17:51:23 17:56:40 71° 73° (ENE) 18:01:58 137.62
KKS-1 29 May 17:52:52 17:56:04 20° 295° (WNW) 17:59:15 437.445
GOMX 1 29 May 18:01:16 18:06:09 34° 69° (ENE) 18:10:54 467.674
Cubesat XI-IV 29 May 18:04:04 18:09:18 63° 72° (ENE) 18:14:34 437.490
Cosmos 2504 29 May 18:09:11 18:16:26 75° 280° (W) 18:24:08 435.465 / 435.565
LilacSat-2 29 May 18:16:35 18:20:22 74° 76° (ENE) 18:24:10 437.200
CUBESAT XI-V 29 May 18:16:59 18:21:43 71° 102° (ESE) 18:26:23 437.345
BEESAT 3 29 May 18:17:37 18:18:07 10° 36° (NE) 18:18:38 437.485
NOAA 18 29 May 18:19:54 18:25:22 77° 257° (WSW) 18:30:51 137.9125
HORYU 2 29 May 18:20:45 18:21:40 11° 270° (W) 18:22:36 437.375
STARS 29 May 18:22:49 18:25:48 18° 296° (WNW) 18:28:46 437.465
M-CUBED/EXP-1 PRIME 29 May 18:24:42 18:26:10 12° 59° (ENE) 18:27:36 437.505
MOZHAYETS 4 29 May 18:24:45 18:27:05 14° 298° (WNW) 18:29:24
YUBILEINY 29 May 18:33:45 18:39:36 19° 299° (WNW) 18:45:29 435.215
DOVE 4 29 May 18:39:18 18:44:01 37° 70° (ENE) 18:48:34 437.250
RS-15 29 May 18:43:36 18:54:49 58° 313° (NW) 19:06:44 29.354- 29.394
CUTE-I 29 May 18:49:48 18:54:57 51° 260° (W) 19:00:08 437.470
STRAND 1 29 May 18:52:20 18:54:45 13° 90° (E) 18:57:09 437.568
CINEMA 3 29 May 18:55:52 18:58:41 16° 65° (ENE) 19:01:28 145.822/145.860
PCSat 29 May 19:18:47 19:24:00 49° 247° (WSW) 19:29:11 145.827
HO-68 29 May 19:22:36 19:29:20 47° 66° (ENE) 19:36:06 435.675
BEESAT 2 29 May 19:22:44 19:25:55 22° 46° (NE) 19:29:05 435.950
O/OREOS (USA 219) 29 May 19:25:44 19:30:12 69° 251° (WSW) 19:34:38 437.305
BRITE-PL 29 May 19:26:32 19:31:03 24° 268° (W) 19:35:36 437.365/2234.400
CUBEBUG 2 29 May 19:32:03 19:33:15 11° 62° (ENE) 19:34:28 437.445
NOAA 15 29 May 19:34:01 19:36:57 15° 270° (W) 19:39:53 137.62
GOMX 1 29 May 19:39:13 19:44:09 33° 265° (W) 19:48:58 467.674
Cubesat XI-IV 29 May 19:46:28 19:49:48 17° 269° (W) 19:53:09 437.490
AUBIESAT-1 29 May 19:47:33 19:51:36 81° 74° (ENE) 19:55:24 437.475
SEEDS 29 May 19:49:18 19:53:04 35° 71° (ENE) 19:56:54 437.485
CANX-2 29 May 19:50:48 19:54:55 58° 74° (ENE) 19:59:06 2200.000
BEESAT 3 29 May 19:52:37 19:56:35 70° 57° (ENE) 20:00:30 437.485
UWE-3 29 May 19:54:53 19:56:58 13° 64° (ENE) 19:59:00 435.000/436.395/437.385
CUBESAT XI-V 29 May 19:56:10 19:58:29 14° 299° (WNW) 20:00:48 437.345
M-CUBED/EXP-1 PRIME 29 May 19:56:15 20:00:21 64° 253° (WSW) 20:04:10 437.505
Cosmos 2504 29 May 20:08:01 20:11:24 13° 302° (WNW) 20:14:55 435.465 / 435.565
DOVE 4 29 May 20:17:20 20:21:43 27° 265° (W) 20:25:59 437.250
CUTE 1.7 + AOD 2 29 May 20:17:32 20:21:44 80° 258° (WSW) 20:25:59 437.475
ISS 29 May 20:28:57 20:31:56 33° 137° (SE) 20:34:56 145.825
STRAND 1 29 May 20:29:18 20:34:28 75° 286° (WNW) 20:39:36 437.568
GONETS M04 29 May 20:30:11 20:36:26 22° 79° (E) 20:42:39
COMPASS 1 29 May 20:30:45 20:34:52 74° 76° (ENE) 20:39:03 437.405
CINEMA 3 29 May 20:30:50 20:35:27 55° 260° (W) 20:39:54 145.822/145.860
AAUSAT CUBESAT 2 29 May 20:31:04 20:35:07 59° 74° (ENE) 20:39:13 437.432
Oscar 11 29 May 20:31:25 20:34:56 25° 68° (ENE) 20:38:27 145.826/435.025
PRISM 29 May 20:32:03 20:35:15 21° 94° (E) 20:38:25 437.425
CUSAT 1 29 May 20:35:29 20:37:16 11° 51° (NE) 20:38:58 437.405
DELFI C3 29 May 20:44:00 20:46:19 15° 65° (ENE) 20:48:38 145.870
AIST 1 29 May 20:44:51 20:48:55 38° 92° (E) 20:53:02
Cosmos 2499 29 May 20:48:54 20:52:09 13° 74° (ENE) 20:55:28 435.465 / 435.565
ZACube-1 29 May 20:49:52 20:53:40 34° 71° (ENE) 20:57:26 437.345
BEESAT 2 29 May 21:00:10 21:03:53 38° 244° (WSW) 21:07:34 435.950
RS-15 29 May 21:01:14 21:10:43 27° 344° (NNW) 21:20:32 29.354- 29.394
CUBEBUG 2 29 May 21:04:59 21:09:20 73° 258° (WSW) 21:13:35 437.445
HO-68 29 May 21:10:49 21:17:10 34° 264° (W) 21:23:35 435.675
SEEDS 29 May 21:25:51 21:28:53 19° 267° (W) 21:31:57 437.485
FUNcube-1 29 May 21:26:11 21:30:24 83° 76° (ENE) 21:34:34 145.935
UWE-3 29 May 21:28:46 21:32:59 57° 260° (W) 21:37:08 435.000/436.395/437.385
CANX-2 29 May 21:29:31 21:31:09 12° 270° (W) 21:32:47 2200.000
PHONESAT 2.4 29 May 21:31:25 21:34:09 27° 158° (SSE) 21:36:53 2401.200-2431.200
BEESAT 3 29 May 21:33:11 21:33:40 10° 252° (WSW) 21:34:09 437.485
AIST 2 29 May 21:50:56 21:54:57 46° 52° (NE) 21:58:56 435.215
ISS 29 May 22:05:21 22:08:22 34° 335° (NNW) 22:11:24 145.825
PRISM 29 May 22:06:53 22:10:37 32° 290° (WNW) 22:14:19 437.425
Oscar 11 29 May 22:07:12 22:10:56 29° 264° (W) 22:14:43 145.826/435.025
AAUSAT CUBESAT 2 29 May 22:09:37 22:10:59 11° 271° (W) 22:12:21 437.432
STRAND 1 29 May 22:12:06 22:12:43 10° 304° (WNW) 22:13:20 437.568
HUMSAT D 29 May 22:13:03 22:17:06 70° 75° (ENE) 22:21:10 437.325/437.525
CUSAT 1 29 May 22:13:59 22:21:30 54° 74° (ENE) 22:27:39 437.405
UNISAT 6 29 May 22:14:10 22:16:48 16° 92° (E) 22:19:25 437.425
DELFI C3 29 May 22:17:01 22:20:48 43° 261° (W) 22:24:38 145.870
TIGRISAT 29 May 22:20:41 22:23:33 17° 93° (E) 22:26:26 435.000
50 SAT 29 May 22:22:46 22:23:15 10° 63° (ENE) 22:23:44 437.505
GONETS M04 29 May 22:23:25 22:32:14 78° 279° (W) 22:41:02
AIST 1 29 May 22:23:34 22:26:40 19° 289° (WNW) 22:29:49
ZACube-1 29 May 22:26:55 22:30:02 20° 266° (W) 22:33:09 437.345
DANDE 29 May 22:28:41 22:36:33 41° 70° (ENE) 22:43:36 436.750
CUBEBUG 1 29 May 22:31:41 22:34:25 16° 64° (ENE) 22:37:09 437.445
DX 1 29 May 22:32:01 22:34:11 14° 62° (ENE) 22:36:22 434.975-435.025
ESTCUBE 1 29 May 22:32:13 22:35:47 23° 66° (ENE) 22:39:22 437.505/2401.250
Cosmos 2499 29 May 22:36:28 22:43:44 81° 95° (E) 22:51:37 435.465 / 435.565
VELOX 1 29 May 22:44:20 22:47:42 21° 66° (ENE) 22:51:05 145.980
ANTELSAT 29 May 22:54:07 22:58:14 42° 99° (E) 23:02:24 437.575/2403.000
PHONESAT 2.4 29 May 23:07:31 23:10:39 63° 174° (S) 23:13:45 2401.200-2431.200
QB50P2 29 May 23:09:54 23:11:10 11° 90° (E) 23:12:26 145.880/145.840
POLYITAN 1 29 May 23:12:16 23:13:39 11° 90° (E) 23:15:02 437.675
UKube-1 29 May 23:14:50 23:18:36 30° 68° (ENE) 23:22:22 .
SO-50 29 May 23:18:05 23:22:05 25° 112° (ESE) 23:26:05 436.795
RS-15 29 May 23:18:45 23:28:43 28° 20° (NNE) 23:38:49 29.354- 29.394
AISAT 29 May 23:19:36 23:23:55 51° 72° (ENE) 23:28:16 437.250
NANOSAT C BR1 29 May 23:22:49 23:25:08 14° 92° (E) 23:27:26 145.865
AIST 2 29 May 23:30:19 23:33:05 17° 249° (WSW) 23:35:51 435.215
ISS 29 May 23:43:27 23:45:32 16° 354° (N) 23:47:37 145.825
UNISAT 6 29 May 23:49:36 23:53:45 47° 287° (WNW) 23:57:57 437.425
50 SAT 29 May 23:52:54 23:56:28 57° 259° (W) 00:00:06 437.505
TIGRISAT 29 May 23:56:21 00:00:25 42° 288° (WNW) 00:04:32 435.000
CUSAT 1 29 May 23:56:52 00:03:03 29° 276° (W) 00:08:20 437.405
DUCHIFAT 1 29 May 23:59:00 00:02:49 34° 97° (E) 00:06:37 145.980
DX 1 30 May 00:05:31 00:09:52 63° 259° (WSW) 00:14:15 434.975-435.025
CUBEBUG 1 30 May 00:05:58 00:10:18 52° 260° (W) 00:14:39 437.445
BUGSAT 1 30 May 00:07:32 00:10:27 19° 94° (E) 00:13:20 437.445
ESTCUBE 1 30 May 00:08:16 00:12:24 35° 263° (W) 00:16:34 437.505/2401.250
DANDE 30 May 00:11:36 00:19:30 47° 271° (W) 00:26:29 436.750
VELOX 1 30 May 00:19:46 00:23:55 38° 262° (W) 00:28:06 145.980
SPROUT 30 May 00:21:32 00:25:50 90° 115° (ESE) 00:30:09 437.525
GONETS M04 30 May 00:25:31 00:30:38 16° 301° (WNW) 00:35:48
ANTELSAT 30 May 00:31:41 00:34:39 18° 295° (WNW) 00:37:40 437.575/2403.000
Cosmos 2499 30 May 00:32:51 00:37:58 19° 298° (WNW) 00:43:21 435.465 / 435.565
TISAT 1 30 May 00:36:53 00:40:45 36° 71° (ENE) 00:44:38 437.305
POPSAT HIP 1 30 May 00:39:50 00:44:01 73° 285° (WNW) 00:48:12 437.405
QB50P1 30 May 00:39:59 00:44:11 71° 284° (WNW) 00:48:20 145.935-145.965
QB50P2 30 May 00:43:13 00:47:23 62° 286° (WNW) 00:51:32 145.880/145.840
PHONESAT 2.4 30 May 00:44:12 00:47:16 52° 191° (SSW) 00:50:19 2401.200-2431.200
POLYITAN 1 30 May 00:45:41 00:49:51 60° 286° (WNW) 00:53:59 437.675
UKube-1 30 May 00:51:03 00:54:37 25° 264° (W) 00:58:13 .
SWISSCUBE 30 May 00:55:27 00:58:04 15° 61° (ENE) 01:00:43 437.505
NANOSAT C BR1 30 May 00:57:05 01:01:08 47° 288° (WNW) 01:05:08 145.865
SO-50 30 May 00:57:40 01:02:21 44° 309° (NW) 01:07:03 436.795
AISAT 30 May 00:58:03 01:00:42 15° 268° (W) 01:03:20 437.250
ITUPSAT 1 30 May 01:02:48 01:05:36 16° 61° (ENE) 01:08:23 437.325
Oscar 19 30 May 01:07:29 01:10:16 14° 90° (E) 01:13:01 437.125/150
ISS 30 May 01:20:23 01:22:53 20° 15° (NNE) 01:25:21 145.825
BEESAT 30 May 01:23:26 01:27:16 25° 66° (ENE) 01:31:06 436.000
JAS-2 30 May 01:25:48 01:33:01 54° 98° (E) 01:39:24 435.910
RS-15 30 May 01:32:10 01:44:23 63° 49° (NE) 01:56:34 29.354- 29.394
DUCHIFAT 1 30 May 01:35:12 01:38:18 21° 294° (WNW) 01:41:24 145.980
BUGSAT 1 30 May 01:42:17 01:45:55 33° 290° (WNW) 01:49:30 437.445
Gurwin Techsat 1B 30 May 01:50:03 01:53:16 16° 90° (E) 01:56:29 435.225
TISAT 1 30 May 02:13:30 02:16:31 19° 266° (W) 02:19:34 437.305
PHONESAT 2.4 30 May 02:21:25 02:23:37 18° 207° (SSW) 02:25:49 2401.200-2431.200
SWISSCUBE 30 May 02:30:36 02:35:20 66° 259° (WSW) 02:40:04 437.505
ITUPSAT 1 30 May 02:38:12 02:42:55 63° 258° (WSW) 02:47:39 437.325
YUBILEINY 30 May 02:42:34 02:50:57 47° 74° (ENE) 02:59:19 435.215
SO-50 30 May 02:44:00 02:44:07 10° 331° (NNW) 02:44:14 436.795
Oscar 19 30 May 02:44:56 02:50:04 68° 287° (WNW) 02:55:09 437.125/150
ISS 30 May 02:56:28 02:59:45 76° 34° (NE) 03:03:00 145.825
BEESAT 30 May 03:00:29 03:04:51 36° 262° (W) 03:09:16 436.000
JAS-2 30 May 03:11:19 03:17:34 31° 299° (WNW) 03:23:19 435.910
KKS-1 30 May 03:13:50 03:18:00 39° 70° (ENE) 03:22:10 437.445
Gurwin Techsat 1B 30 May 03:28:24 03:33:41 65° 287° (WNW) 03:38:56 435.225
ITAMSAT 1 30 May 03:32:06 03:37:15 55° 101° (E) 03:42:21 435.822/435.867
Cosmos 2491 30 May 03:38:42 03:47:07 52° 89° (E) 03:55:33 435.465 / 435.565
STARS 30 May 03:42:24 03:46:32 41° 71° (ENE) 03:50:40 437.465
RS-15 30 May 03:45:15 03:56:27 44° 252° (WSW) 04:07:36 29.354- 29.394
MOZHAYETS 4 30 May 03:47:51 03:52:21 66° 75° (ENE) 03:56:54
Cosmos 2504 30 May 04:00:03 04:08:03 43° 74° (ENE) 04:16:21 435.465 / 435.565
AO-7 30 May 04:29:05 04:37:20 59° 103° (ESE) 04:45:33 29.400- 29.500
HORYU 2 30 May 04:32:32 04:34:34 13° 91° (E) 04:36:37 437.375
ISS 30 May 04:34:16 04:35:45 13° 230° (SW) 04:37:16 145.825
YUBILEINY 30 May 04:39:41 04:47:33 39° 274° (W) 04:55:27 435.215
AO-85 30 May 04:44:14 04:48:34 25° 111° (ESE) 04:52:53 145.980
KKS-1 30 May 04:51:27 04:54:42 20° 266° (W) 04:57:58 437.445
ITAMSAT 1 30 May 05:12:32 05:16:18 20° 298° (WNW) 05:20:03 435.822/435.867
STARS 30 May 05:19:57 05:23:03 19° 267° (W) 05:26:10 437.465
CUBESAT XI-V 30 May 05:20:17 05:24:56 71° 75° (ENE) 05:29:39 437.345
MOZHAYETS 4 30 May 05:28:09 05:29:58 12° 271° (W) 05:31:48
Cosmos 2491 30 May 05:36:18 05:44:13 36° 290° (WNW) 05:52:11 435.465 / 435.565
Cosmos 2504 30 May 05:53:31 06:01:24 44° 272° (W) 06:09:34 435.465 / 435.565
BRITE-PL 30 May 05:53:47 05:56:23 14° 87° (E) 05:58:53 437.365/2234.400
NOAA 15 30 May 06:06:46 06:11:07 25° 94° (E) 06:15:25 137.62
HORYU 2 30 May 06:07:08 06:11:30 60° 287° (WNW) 06:15:52 437.375
STRAND 1 30 May 06:08:06 06:11:53 21° 63° (ENE) 06:15:39 437.568
Cubesat XI-IV 30 May 06:21:28 06:25:46 24° 94° (E) 06:30:03 437.490
AO-7 30 May 06:22:26 06:29:41 35° 302° (WNW) 06:36:57 29.400- 29.500
AO-85 30 May 06:23:29 06:28:49 53° 308° (NW) 06:34:01 145.980
NOAA 18 30 May 06:41:36 06:46:50 43° 99° (E) 06:52:01 137.9125
GONETS M04 30 May 06:41:36 06:42:40 10° 52° (NE) 06:43:44
AIST 1 30 May 06:53:53 06:54:46 11° 66° (ENE) 06:55:39
CUBESAT XI-V 30 May 07:01:02 07:02:49 12° 271° (W) 07:04:36 437.345
CUTE-I 30 May 07:06:09 07:11:28 62° 102° (ESE) 07:16:47 437.470
PRISM 30 May 07:22:23 07:25:07 17° 64° (ENE) 07:27:53 437.425
LilacSat-2 30 May 07:23:42 07:27:29 75° 285° (WNW) 07:31:16 437.200
BRITE-PL 30 May 07:30:27 07:35:27 62° 287° (WNW) 07:40:01 437.365/2234.400
GOMX 1 30 May 07:40:45 07:45:23 80° 103° (ESE) 07:49:42 467.674
STRAND 1 30 May 07:45:45 07:50:41 50° 260° (W) 07:55:39 437.568
NOAA 15 30 May 07:46:03 07:51:02 42° 291° (WNW) 07:55:57 137.62
SO-50 30 May 07:48:42 07:52:44 27° 45° (NE) 07:56:40 436.795
Cubesat XI-IV 30 May 08:00:56 08:06:01 44° 290° (WNW) 08:11:05 437.490
O/OREOS (USA 219) 30 May 08:01:47 08:03:48 13° 98° (E) 08:05:48 437.305
CUTE 1.7 + AOD 2 30 May 08:03:02 08:05:53 17° 92° (E) 08:08:44 437.475
AO-85 30 May 08:08:09 08:10:28 13° 328° (NNW) 08:12:43 145.980
COMPASS 1 30 May 08:15:20 08:16:50 12° 90° (E) 08:18:19 437.405
DOVE 4 30 May 08:15:23 08:19:45 86° 106° (ESE) 08:23:54 437.250
PCSat 30 May 08:18:57 08:22:49 20° 106° (ESE) 08:26:41 145.827
NOAA 18 30 May 08:22:44 08:27:14 27° 296° (WNW) 08:31:46 137.9125
CINEMA 3 30 May 08:25:22 08:29:03 30° 96° (E) 08:32:44 145.822/145.860
Cosmos 2499 30 May 08:26:25 08:34:02 33° 70° (ENE) 08:41:45 435.465 / 435.565
AIST 1 30 May 08:28:35 08:32:55 70° 265° (W) 08:37:11
GONETS M04 30 May 08:33:20 08:41:52 55° 76° (ENE) 08:50:19
HO-68 30 May 08:36:59 08:43:52 47° 100° (E) 08:50:42 435.675
CUTE-I 30 May 08:47:22 08:51:01 19° 299° (WNW) 08:54:40 437.470
CUBEBUG 2 30 May 08:55:53 08:59:05 21° 94° (E) 09:02:17 437.445
PRISM 30 May 08:56:09 09:00:06 42° 261° (W) 09:04:06 437.425
AUBIESAT-1 30 May 09:00:22 09:03:35 48° 105° (ESE) 09:06:49 437.475
SEEDS 30 May 09:07:49 09:12:04 66° 101° (E) 09:16:17 437.485
M-CUBED/EXP-1 PRIME 30 May 09:09:38 09:12:54 85° 102° (ESE) 09:16:12 437.505
CANX-2 30 May 09:10:58 09:15:16 73° 284° (WNW) 09:19:32 2200.000
UNISAT 6 30 May 09:14:01 09:16:32 15° 64° (ENE) 09:19:02 437.425
FUNcube-1 30 May 09:14:55 09:17:19 15° 92° (E) 09:19:43 145.935
UWE-3 30 May 09:18:06 09:21:36 25° 95° (E) 09:25:08 435.000/436.395/437.385
TIGRISAT 30 May 09:20:17 09:23:01 17° 65° (ENE) 09:25:46 435.000
GOMX 1 30 May 09:21:25 09:22:41 11° 301° (WNW) 09:23:56 467.674
SO-50 30 May 09:28:58 09:33:21 40° 244° (WSW) 09:37:35 436.795
CUTE 1.7 + AOD 2 30 May 09:37:52 09:41:54 41° 288° (WNW) 09:45:57 437.475
O/OREOS (USA 219) 30 May 09:38:06 09:42:37 63° 294° (WNW) 09:47:09 437.305
AAUSAT CUBESAT 2 30 May 09:48:10 09:52:23 77° 284° (WNW) 09:56:34 437.432
COMPASS 1 30 May 09:48:36 09:52:46 60° 286° (WNW) 09:56:55 437.405
Oscar 11 30 May 09:53:16 09:57:29 47° 99° (E) 10:01:40 145.826/435.025
ANTELSAT 30 May 09:53:22 09:57:23 38° 71° (ENE) 10:01:21 437.575/2403.000
DELFI C3 30 May 09:54:39 09:57:50 22° 94° (E) 10:01:00 145.870
HUMSAT D 30 May 09:58:24 09:59:29 11° 90° (E) 10:00:33 437.325/437.525
PCSat 30 May 10:00:24 10:05:43 58° 303° (WNW) 10:11:06 145.827
CINEMA 3 30 May 10:02:51 10:06:04 22° 293° (WNW) 10:09:15 145.822/145.860
POLYITAN 1 30 May 10:06:50 10:07:18 10° 61° (ENE) 10:07:47 437.675
ZACube-1 30 May 10:13:10 10:17:22 71° 102° (ESE) 10:21:39 437.345
NANOSAT C BR1 30 May 10:16:17 10:18:04 12° 62° (ENE) 10:19:51 145.865
Cosmos 2499 30 May 10:19:05 10:27:33 59° 269° (W) 10:36:12 435.465 / 435.565
HO-68 30 May 10:25:01 10:31:23 36° 298° (WNW) 10:37:44 435.675
GONETS M04 30 May 10:30:50 10:38:14 33° 276° (W) 10:45:38
CUBEBUG 2 30 May 10:32:02 10:35:45 32° 290° (WNW) 10:39:32 437.445
AUBIESAT-1 30 May 10:37:20 10:37:43 10° 301° (WNW) 10:38:07 437.475
SEEDS 30 May 10:45:30 10:47:13 12° 298° (WNW) 10:48:56 437.485
UNISAT 6 30 May 10:48:38 10:52:51 51° 260° (W) 10:57:03 437.425
FUNcube-1 30 May 10:49:46 10:53:48 47° 287° (WNW) 10:57:55 145.935
DUCHIFAT 1 30 May 10:51:22 10:54:56 27° 68° (ENE) 10:58:29 145.980
BEESAT 2 30 May 10:52:22 10:55:52 31° 115° (ESE) 10:59:25 435.950
UWE-3 30 May 10:54:28 10:58:02 27° 291° (WNW) 11:01:38 435.000/436.395/437.385
TIGRISAT 30 May 10:55:13 10:59:23 45° 261° (W) 11:03:31 435.000
BUGSAT 1 30 May 10:58:11 11:00:44 16° 64° (ENE) 11:03:16 437.445
CUSAT 1 30 May 11:14:35 11:20:58 53° 91° (E) 11:28:33 437.405
BEESAT 3 30 May 11:20:45 11:24:40 71° 305° (NW) 11:28:37 437.485
50 SAT 30 May 11:23:43 11:25:01 11° 91° (E) 11:26:18 437.505
DELFI C3 30 May 11:29:11 11:32:42 29° 290° (WNW) 11:36:11 145.870
Oscar 11 30 May 11:30:27 11:33:15 17° 295° (WNW) 11:36:01 145.826/435.025
ANTELSAT 30 May 11:31:11 11:34:14 19° 267° (W) 11:37:17 437.575/2403.000
HUMSAT D 30 May 11:31:21 11:35:29 64° 286° (WNW) 11:39:39 437.325/437.525
POPSAT HIP 1 30 May 11:32:15 11:36:29 86° 78° (ENE) 11:40:44 437.405
QB50P1 30 May 11:32:20 11:36:34 87° 84° (E) 11:40:50 145.935-145.965
QB50P2 30 May 11:35:45 11:39:59 81° 257° (WSW) 11:44:14 145.880/145.840
DANDE 30 May 11:36:54 11:42:12 37° 86° (E) 11:48:49 436.750
JAS-2 30 May 11:37:18 11:43:37 30° 61° (ENE) 11:50:09 435.910
POLYITAN 1 30 May 11:38:15 11:42:29 79° 258° (WSW) 11:46:42 437.675
PCSat 30 May 11:48:09 11:50:20 12° 325° (NW) 11:52:31 145.827
NANOSAT C BR1 30 May 11:49:06 11:53:17 63° 258° (WSW) 11:57:29 145.865
ZACube-1 30 May 11:51:50 11:53:06 11° 298° (WNW) 11:54:23 437.345
DX 1 30 May 11:53:59 11:57:18 21° 94° (E) 12:00:37 434.975-435.025
CUBEBUG 1 30 May 11:54:30 11:58:14 27° 95° (E) 12:01:55 437.445
ESTCUBE 1 30 May 11:59:54 12:04:17 46° 99° (E) 12:08:38 437.505/2401.250
SPROUT 30 May 12:08:32 12:10:58 15° 92° (E) 12:13:22 437.525
VELOX 1 30 May 12:09:16 12:13:24 37° 98° (E) 12:17:29 145.980
Cosmos 2499 30 May 12:17:43 12:18:50 10° 288° (WNW) 12:19:56 435.465 / 435.565
Oscar 19 30 May 12:24:10 12:28:15 24° 64° (ENE) 12:32:20 437.125/150
DUCHIFAT 1 30 May 12:27:03 12:30:34 25° 265° (W) 12:34:05 145.980
BEESAT 2 30 May 12:30:22 12:33:44 26° 313° (NW) 12:37:07 435.950
